Flag for Germany Weather past 2 weeks in Rotenburg (Wümme), Lower Saxony, Germany

Now
45 °F

Overcast.


Feels Like: 41 °F
Forecast: 37 / 51 °F
Wind: 7 mph from Southwest

Location: Bremen

Current Time: Mar 6, 2015 at 12:03:03 PM

Latest Report: Mar 6, 2015 at 11:00 AM


Visibility: 11 mi

Pressure: 30.53 "Hg

Humidity: 77%

Dew point: 38 °F

Location of Rotenburg (Wümme)Location

Historic Weather in Rotenburg (Wümme) — Graph

°F

Rotenburg (Wümme) temperature yesterday

Maximum temperature yesterday: 47 °F (at 4:00 PM)
Minimum temperature yesterday: 33 °F (at 6:00 AM)
Average temperature yesterday: 41 °F

Past Weeks' High & Low Weather Summary

 TemperatureHumidityPressure
High49 °F (Mar 1, 12:00 PM)100% (Feb 28, 3:00 AM)30.58 "Hg (Feb 28, 3:00 AM)
Low29 °F (Feb 28, 5:00 AM)48% (Mar 2, 4:00 PM)29.26 "Hg (Feb 21, 7:00 AM)
Average40 °F84%29.84 "Hg
* Reported Feb 19 12:00 Noon — Mar 6 11:00 AM, Rotenburg (Wümme), Weather by CustomWeather, © 2015

Note: Actual official high and low records may vary slightly from our data, if they occured in-between our weather recording intervals... More about our weather records

Advertising

Rotenburg (Wümme) weather history for previous 24 hours

 ConditionsComfort  
Time TempWeatherWind HumidityBarometerVisibility
11:00 AM
Fri, Mar 6
45 °FOvercast.7 mph77%30.53 "Hg11 mi
10:00 AM43 °FOvercast.6 mph80%30.54 "Hg9 mi
9:00 AM42 °FOvercast.5 mph81%30.53 "Hg9 mi
8:00 AM41 °FOvercast.6 mph82%30.52 "Hg9 mi
7:00 AM41 °FOvercast.6 mph82%30.53 "Hg9 mi
6:00 AM40 °FOvercast.5 mph84%30.54 "Hg12 mi
5:00 AM41 °FOvercast.6 mph83%30.53 "Hg12 mi
4:00 AM40 °FOvercast.5 mph85%30.54 "Hg12 mi
3:00 AM40 °FOvercast.5 mph85%30.54 "Hg12 mi
2:00 AM40 °FOvercast.5 mph87%30.55 "Hg12 mi
1:00 AM40 °FOvercast.5 mph88%30.56 "Hg16 mi
12:00 AM40 °FOvercast.5 mph84%30.56 "Hg16 mi
9:00 PM
Thu, Mar 5
40 °FOvercast.3 mph83%30.56 "Hg16 mi
8:00 PM43 °FOvercast.2 mph78%30.56 "Hg16 mi
7:00 PM43 °FOvercast.3 mph76%30.57 "Hg16 mi
6:00 PM45 °FOvercast.5 mph68%30.57 "Hg16 mi
5:00 PM46 °FOvercast.7 mph63%30.56 "Hg16 mi
4:00 PM47 °FOvercast.7 mph62%30.56 "Hg16 mi
3:00 PM47 °FOvercast.7 mph67%30.55 "Hg16 mi
2:00 PM46 °FOvercast.7 mph71%30.56 "Hg16 mi
1:00 PM44 °FOvercast.7 mph76%30.57 "Hg10 mi
12:00 PM43 °FOvercast.7 mph84%30.58 "Hg7 mi
Weather by CustomWeather, © 2015

See weather overviewHow to use our weather pages